Regional Weather Roundup
Issued by NWS State College, PA

Home | Current Version | Previous Version | Graphics & Text | Print | Product List | Glossary On
Versions: 1 2 3 4 5 6 7 8 9 10 11 12 13 14 15 16 17 18 19 20 21 22 23 24 25 26 27 28 29 30 31 32 33 34 35 36 37 38 39 40 41 42 43 44 45 46 47 48 49 50
000
ASUS41 KCTP 182103
RWRCTP

REGIONAL WEATHER ROUNDUP
NATIONAL WEATHER SERVICE STATE COLLEGE PA
500 PM EDT THU SEP 18 2014

Note: "fair" indicates few or no clouds below 12,000 feet with no
significant weather and/or obstructions to visibility.

* = STATION THAT DOES NOT REPORT PRECIPITATION /E.G. RAIN...SNOW...ETC/
    THUNDER OR FOG.

PAZ002>004-007>009-013>016-020>023-029>032-182200-
WESTERN PENNSYLVANIA

CITY           SKY/WX    TMP DP  RH WIND       PRES   REMARKS
ERIE           SUNNY     63  50  62 N5        30.13S
MEADVILLE      SUNNY     64  49  57 N12       30.11R
FRANKLIN*      MOSUNNY   63  46  55 N5        30.11S
NEW CASTLE     NOT AVBL
BEAVER COUNTY  PTSUNNY   68  46  45 N7        30.08F
BUTLER*        SUNNY     66  46  48 N3        30.10F
PITTSBURGH INT MOSUNNY   69  46  43 N7        30.08S
PITTSBURGH     MOSUNNY   66  41  40 VRB6      30.07S
INDIANA*       SUNNY     66  45  45 MISG      30.12S
LATROBE        MOSUNNY   66  46  48 N12       30.08F
WASHINGTON CO* PTSUNNY   66  45  45 N8        30.09S
$$

PAZ004>006-010>012-017>019-024>028-033>037-041-042-045-046-049>053-182200-
CENTRAL PENNSYLVANIA

CITY           SKY/WX    TMP DP  RH WIND       PRES   REMARKS
BRADFORD       MOSUNNY   61  44  53 NW10      30.09S
DUBOIS         MOSUNNY   65  44  46 NW7       30.07F
CLEARFIELD     PTSUNNY   68  45  43 N6        30.07F
JOHNSTOWN      MOSUNNY   63  41  44 N9        30.08S
ALTOONA        PTSUNNY   67  47  48 N9        30.06S
STATE COLLEGE  NOT AVBL
WILLIAMSPORT   PTSUNNY   72  45  37 W6        30.02S
SELINSGROVE    MOSUNNY   73  44  35 CALM      30.03S
FT INDIANTOWN  SUNNY     73  42  32 N9        30.03R
CAPITAL CITY   MOSUNNY   75  42  30 N10       30.02S
HARRISBURG     MOSUNNY   75  44  33 NW10      30.01S
YORK           SUNNY     75  46  35 N7        30.02S
$$

PAZ038>040-043-044-047-048-054-055-060>062-067>071-182200-
EASTERN PENNSYLVANIA

CITY           SKY/WX    TMP DP  RH WIND       PRES   REMARKS
SCRANTON       MOSUNNY   72  40  31 N10       30.03R
MOUNT POCONO   MOSUNNY   66  42  41 NW7       30.05R
ALLENTOWN      SUNNY     75  43  31 NW9       30.00S
QUAKERTOWN*    PTCLDY    73  46  38 W6        30.01S
READING        SUNNY     75  43  31 NW8       30.00S
LANCASTER      MOSUNNY   74  44  34 N9        30.01S
COATESVILLE    CLEAR     70  55  60 CALM      30.03S
POTTSTOWN      SUNNY     73  48  41 CALM      30.02R
BLUE BELL      SUNNY     73  54  49 CALM      29.99S
DOYLESTOWN     MOSUNNY   73  47  39 NW5       30.00R
WILLOW GROVE   NOT AVBL
NORTH PHILA    CLOUDY    75  52  44 SW8       30.01S
PHILADELPHIA   MOSUNNY   72  54  53 W10       30.01F
$$


USA.gov is the U.S. government's official web portal to all federal, state and local government web resources and services.